Location: Le Hiès Ruisseau
(43.3000°N, 0.4500°W)
Time: 12:51:34
(UTC+00:00)

Cosmos 2251 Rocket - Pass Details

Date: 28 January 2023
Orbit: 764 x 791 km, 74.0° (Epoch: 19 March)

Event Time Altitude Azimuth Distance (km) Brightness Sun altitude
Rises 18:26:16 0° 200° (SSW) 3,250 7.2 -14.4°
Reaches altitude 10° 18:28:38 10° 201° (SSW) 2,330 6.4 -14.8°
Maximum altitude 18:33:57 83° 290° (WNW) 797 3.6 -15.7°
Drops below altitude 10° 18:39:20 10° 19° (NNE) 2,361 5.8 -16.7°
Enters shadow 18:40:46 - 20° (NNE) 2,913 6.2 -17.0°
